Wind_Speed
35 37 39 41 42 43 43 42 41 41 40 39 39 39 40 40 39 40 41 43 43 42 39 37 36 36 36 38 39 40 41 42 43 43 42 41 39 38 37 37 37 37 38 39 39 40 41 42 43 44 44 44 44 43 43 42 41 39 38 38 36 35 37 39 40 42 44 45 46 47 47 47 47 48 48 48 47 46 46 46 45 43 43 44 46
39 40 41 42 41 42 42 42 40 39 38 36 36 36 37 37 38 39 40 42 43 42 39 37 36 36 36 37 38 39 39 40 41 42 42 41 41 40 39 39 39 39 40 41 41 42 43 44 44 45 45 44 44 44 44 43 43 41 40 38 37 36 37 39 40 41 43 45 46 48 49 49 48 48 48 48 48 47 46 45 43 43 44 44 44
36 37 36 33 33 34 36 37 37 35 35 36 37 37 37 36 36 36 36 37 40 40 38 37 37 37 38 39 39 40 41 42 43 44 44 44 45 44 44 43 43 44 44 44 44 45 45 45 45 45 45 45 45 44 44 44 44 43 42 40 39 39 39 41 44 45 47 48 48 49 50 48 47 48 50 50 48 46 44 42 41 42 42 42 42
37 35 32 29 30 31 31 32 32 31 33 35 37 38 38 38 36 35 36 37 38 39 38 38 38 39 40 41 42 43 44 45 45 45 46 47 48 47 47 46 46 46 47 47 47 47 46 46 45 45 45 46 46 45 45 44 44 44 43 42 42 43 44 45 46 48 49 50 50 50 50 48 46 49 51 50 47 45 42 40 40 41 42 42 41
42 40 36 34 34 35 36 36 35 34 34 35 38 39 39 38 37 37 38 39 40 41 42 42 42 42 43 45 46 46 45 44 45 46 47 48 48 48 47 46 47 49 51 51 49 47 46 45 45 45 46 46 47 46 46 44 44 43 43 43 45 48 49 48 48 48 49 49 49 49 49 50 51 52 52 49 46 45 43 41 40 40 41 42 42
43 44 44 43 41 40 40 39 40 41 41 43 44 45 46 44 42 42 42 43 44 45 45 45 45 46 47 47 46 46 46 46 47 48 48 48 47 47 47 48 51 53 53 51 49 47 46 45 45 45 45 45 45 45 44 43 43 44 45 47 50 53 53 53 52 53 53 53 52 51 52 53 54 53 51 49 46 45 44 43 42 41 41 42 43
43 44 45 47 46 44 40 39 40 40 42 45 47 48 49 48 46 45 45 45 46 46 46 47 48 48 47 46 46 47 48 48 48 49 49 48 47 47 49 51 53 54 53 51 49 48 47 46 45 45 44 43 44 44 45 45 46 48 49 52 54 56 56 57 57 58 58 58 58 56 56 55 54 53 51 50 48 47 47 46 46 45 44 44 44
43 43 44 45 44 42 39 39 39 39 40 41 39 39 41 42 44 44 43 44 45 46 48 49 50 49 48 48 49 50 51 51 51 51 50 49 50 51 53 54 53 53 52 51 50 49 47 47 47 46 47 47 48 48 48 49 51 52 53 54 55 57 58 60 60 60 61 61 60 60 59 58 57 55 54 53 52 51 50 50 50 50 50 48 47
46 46 46 45 46 45 43 43 43 43 44 43 40 41 44 46 46 45 44 45 46 47 48 49 50 50 50 51 52 53 54 54 54 54 53 54 55 55 54 52 51 51 51 51 50 50 49 49 50 50 50 50 50 50 51 52 54 55 56 56 57 58 60 60 61 61 61 61 60 60 59 60 60 59 59 58 57 56 55 54 54 55 55 54 52
48 48 47 46 48 49 49 50 50 49 51 50 48 50 51 51 49 48 48 49 50 50 51 52 52 52 52 53 53 55 55 56 57 57 57 57 57 55 53 51 51 50 51 51 51 51 51 51 51 51 51 51 52 53 54 55 56 57 58 59 59 59 60 61 62 63 63 63 62 61 60 61 61 61 62 61 61 60 59 59 59 59 59 59 58
50 50 49 48 49 49 50 53 54 54 54 52 50 51 52 52 51 51 51 52 53 54 54 53 52 52 52 53 53 54 55 57 59 59 59 59 57 55 53 52 52 52 52 52 52 52 53 53 53 53 53 54 56 58 58 59 60 60 60 60 60 61 62 63 65 65 65 65 64 63 63 63 64 64 64 65 64 64 63 63 63 63 63 63 63
54 53 53 52 53 52 51 53 54 54 54 53 52 51 51 50 49 49 50 51 52 54 54 54 55 56 57 58 59 59 59 61 62 61 60 59 58 56 55 54 54 55 55 55 55 56 56 57 57 58 59 60 62 63 63 63 63 63 63 63 64 65 65 66 66 66 66 66 66 66 66 66 67 67 68 68 68 68 68 68 68 67 67 66 66
57 56 56 57 57 57 57 56 55 55 56 56 56 54 53 52 52 53 55 55 55 55 56 57 58 60 61 62 63 65 65 64 64 63 62 61 59 58 57 56 56 58 59 59 60 61 61 61 62 63 64 65 66 67 66 65 65 66 67 67 68 68 69 68 68 68 68 68 68 68 69 69 69 70 70 71 71 71 71 71 72 71 71 70 69
59 58 58 59 59 60 61 59 58 58 58 56 55 54 55 56 57 58 59 59 59 59 60 61 62 64 65 65 65 65 65 65 65 64 63 62 61 60 59 59 59 60 61 61 62 64 65 65 66 66 66 67 67 67 67 67 68 69 70 70 71 72 72 73 73 74 74 74 73 73 73 73 73 73 74 74 74 74 75 75 75 75 74 73 72
61 61 60 61 61 62 63 63 62 62 60 59 57 57 57 57 56 57 59 61 63 64 66 67 66 67 68 67 65 64 63 65 67 66 65 64 63 63 63 63 64 64 64 66 67 68 68 68 67 66 66 66 67 68 68 70 71 73 74 75 77 78 79 80 80 80 80 79 78 77 77 77 78 78 78 78 78 77 77 77 77 77 77 77 76
62 62 62 63 64 65 65 66 67 67 66 65 65 64 63 61 59 60 62 64 65 67 68 67 66 66 66 66 64 61 62 66 68 67 67 67 67 68 68 68 70 70 70 71 71 69 68 67 66 66 66 67 68 69 71 73 77 80 82 83 85 86 86 86 85 83 82 81 81 80 81 81 81 81 80 80 79 79 78 78 78 79 79 79 79
64 64 63 64 65 66 67 68 69 70 70 69 70 70 69 67 67 68 69 70 71 71 70 69 68 68 68 68 66 61 62 68 70 67 67 68 68 71 72 73 73 73 71 69 68 67 66 66 67 69 70 72 74 76 79 81 83 85 86 87 88 87 86 86 86 85 83 83 82 82 82 82 82 82 81 81 80 80 79 79 79 80 80 80 81
67 66 66 66 66 67 68 69 69 70 70 70 70 70 71 71 73 74 74 74 74 74 73 72 72 72 72 72 71 66 65 70 72 71 71 72 73 75 76 76 75 74 71 69 67 67 68 70 73 76 79 81 83 84 86 86 87 87 88 87 85 84 83 85 86 86 86 85 84 83 83 82 82 82 81 81 81 81 80 80 80 80 81 81 82
70 70 70 70 70 70 71 72 73 73 73 73 73 74 74 75 76 76 76 75 75 75 75 75 74 74 74 74 75 73 72 74 76 77 78 79 79 80 81 80 78 78 77 76 75 76 78 81 84 86 88 89 89 89 90 89 89 89 89 87 84 84 85 86 86 86 87 87 87 86 85 84 83 82 81 81 81 81 81 81 81 82 82 83 84
74 74 74 74 74 74 75 76 76 77 78 78 79 79 79 79 79 79 79 79 79 79 79 79 78 77 77 77 77 78 78 79 81 82 83 84 85 85 85 85 85 85 86 86 87 89 90 92 93 94 94 94 94 93 92 91 91 90 89 87 87 87 87 87 88 88 88 88 88 88 88 87 85 84 83 83 83 83 82 82 83 83 84 84 85
78 78 79 79 80 80 80 81 82 82 82 83 84 84 84 85 84 85 85 86 86 86 85 86 86 85 85 84 84 84 84 85 85 86 87 88 89 89 89 89 89 90 91 91 93 94 95 95 96 96 95 95 94 93 92 91 90 90 90 91 91 90 89 90 90 90 89 88 88 88 88 88 87 87 86 85 85 85 85 85 85 85 85 86 87
80 82 82 83 84 85 85 86 86 87 87 87 88 88 88 88 89 90 92 92 92 91 92 93 93 92 92 92 93 93 92 92 91 91 91 91 91 91 90 90 90 90 91 92 93 93 94 95 94 94 94 93 92 92 91 90 90 91 92 94 94 93 93 93 92 90 89 88 88 88 88 88 88 87 86 86 87 87 87 87 87 87 88 89 90
83 84 85 86 87 88 89 89 90 90 91 91 92 92 93 94 95 96 96 96 96 96 97 96 96 95 96 96 97 96 96 95 95 95 95 94 93 92 91 91 90 89 89 90 91 91 92 92 93 93 92 91 91 90 90 90 90 91 93 96 97 97 95 94 92 91 89 88 88 87 87 88 88 87 87 87 88 88 89 89 89 90 90 92 93
85 86 87 88 89 90 91 92 92 93 93 93 94 95 96 97 98 98 98 98 99 99 98 98 97 97 97 97 96 96 96 96 96 96 95 94 93 92 91 90 89 87 87 87 88 88 89 89 90 90 90 89 88 87 87 86 88 91 95 98 98 98 96 95 93 92 90 88 87 86 85 86 87 88 89 90 90 90 90 90 91 92 93 94 96
85 86 88 89 90 91 92 93 94 94 94 95 95 96 97 98 98 98 98 98 98 98 97 97 97 97 97 97 97 96 96 95 94 93 92 91 90 89 89 88 87 86 86 86 87 87 88 88 88 89 89 88 87 86 84 84 89 95 99 99 99 99 98 97 96 94 91 88 87 87 87 87 87 88 90 92 93 93 93 93 92 93 93 95 96
84 84 85 87 89 90 92 93 94 95 95 96 96 97 97 97 97 98 98 97 97 97 97 96 96 96 96 95 95 94 94 93 92 91 91 90 90 90 89 89 88 88 87 88 89 90 90 91 91 91 91 89 88 87 86 86 90 97 101 101 101 101 100 101 101 99 94 90 88 88 88 87 87 88 89 91 92 93 94 93 92 91 91 92 93
83 84 84 85 86 88 89 90 91 93 94 95 95 96 96 96 97 97 97 97 97 96 96 95 95 94 93 92 92 92 92 92 92 92 92 92 92 93 93 93 92 92 91 91 91 92 93 93 93 93 92 91 90 90 90 89 90 94 100 103 103 103 104 105 106 105 102 99 95 91 88 86 85 86 86 87 88 89 89 88 88 88 88 89 91
85 85 85 86 86 87 88 89 90 91 92 92 92 92 93 93 93 93 93 93 93 93 93 93 92 92 92 92 92 92 93 94 94 94 95 95 95 95 96 96 96 96 95 94 94 95 95 96 96 96 94 94 94 94 93 92 93 94 98 101 103 104 106 107 107 108 108 106 101 95 90 87 85 85 85 83 82 81 80 81 82 83 84 86 87
84 84 85 85 86 86 87 88 88 89 89 89 89 89 89 90 90 90 91 91 91 92 92 92 92 93 93 94 94 95 96 97 98 97 97 98 98 98 98 99 99 99 98 98 97 98 99 100 100 99 97 97 97 96 95 95 96 97 98 100 102 104 105 107 109 110 109 105 100 95 92 89 87 84 81 77 75 75 74 75 77 78 79 81 82
86 86 86 86 86 87 87 88 88 89 89 89 89 90 90 90 90 91 91 92 92 93 93 94 94 95 95 96 97 98 99 100 101 101 100 100 100 101 101 101 101 101 101 100 99 100 101 103 103 102 101 99 99 98 97 97 97 98 99 100 101 102 104 107 108 107 104 100 96 92 91 89 86 81 77 74 72 71 71 72 72 73 74 75 74
88 88 89 89 89 89 89 89 90 90 90 91 91 92 92 92 93 93 93 93 94 95 95 96 97 97 98 99 100 100 101 102 103 103 103 103 103 103 104 104 103 103 102 101 100 100 101 103 104 104 103 101 99 98 97 96 96 97 98 100 101 102 104 106 106 104 101 97 93 91 90 88 85 80 77 74 71 68 68 69 69 69 69 68 66
90 90 90 91 91 91 91 91 91 92 92 92 93 94 94 95 95 95 95 95 96 97 97 98 99 99 100 101 101 102 103 103 104 105 105 105 105 105 104 104 103 102 101 100 99 98 99 102 104 104 102 101 99 97 95 94 94 94 95 97 99 101 103 103 102 100 97 94 92 90 88 85 82 80 77 72 67 64 65 66 66 66 65 62 59
92 92 92 92 92 92 93 93 93 93 94 94 95 95 96 97 97 97 97 98 98 99 99 100 100 101 101 102 102 103 103 103 103 104 104 103 102 101 101 100 99 98 96 95 94 94 95 98 100 99 98 96 95 93 91 90 89 90 91 93 94 96 96 95 93 92 92 91 89 87 83 80 79 77 73 66 60 59 61 63 63 62 59 56 55
93 94 94 94 94 94 94 94 95 95 95 96 96 97 98 98 99 99 99 99 99 99 99 100 100 100 100 100 100 100 100 100 100 100 99 98 97 95 94 93 91 90 89 88 88 88 88 90 91 92 92 90 88 87 86 86 85 86 86 87 88 88 88 87 86 85 86 86 85 82 80 77 76 72 66 59 55 55 58 60 59 56 53 51 51
95 95 96 96 96 96 96 96 97 97 97 98 98 98 98 99 99 99 99 98 98 97 97 97 98 97 97 97 97 96 96 95 95 94 93 92 90 88 87 85 84 82 82 82 82 82 82 83 83 84 85 85 84 83 82 81 81 81 81 81 82 81 81 81 81 80 80 81 81 79 78 75 71 66 60 55 52 54 57 57 55 51 48 48 50
96 96 96 97 97 97 97 97 97 98 98 98 98 98 98 97 97 97 97 96 95 94 93 92 93 93 94 94 94 93 92 91 90 89 87 86 84 82 81 79 78 77 76 76 76 77 77 78 78 78 79 80 81 80 78 77 76 76 76 77 77 76 76 76 76 76 76 77 77 77 75 71 65 60 57 54 52 53 55 54 51 48 47 47 48
92 92 92 93 93 93 93 93 93 94 94 94 94 94 93 93 93 93 92 92 92 91 89 88 88 88 88 88 88 88 87 87 86 85 83 81 79 77 76 75 74 73 72 72 71 72 73 74 74 75 75 76 76 76 75 74 73 73 73 73 73 73 72 72 72 72 73 74 74 73 71 66 59 55 55 54 53 52 52 51 49 47 46 45 45
86 86 87 87 87 87 87 87 87 87 87 88 88 88 88 88 88 87 87 87 87 86 86 85 84 84 84 83 83 82 82 82 82 80 78 76 74 72 71 70 70 70 69 68 68 68 69 70 70 70 71 72 72 72 72 71 71 71 70 70 70 70 69 69 69 69 71 71 70 69 67 62 56 53 53 54 53 50 49 49 49 47 43 42 43
81 81 81 81 81 81 81 81 81 81 81 81 81 82 82 82 81 81 82 82 81 81 81 81 81 80 80 80 79 79 78 78 77 75 73 71 69 68 66 66 66 66 65 65 65 65 65 66 67 67 68 68 68 68 68 68 68 67 67 66 66 66 65 64 65 66 66 66 66 66 63 58 53 51 52 53 51 49 49 50 48 43 39 40 41
76 76 76 76 75 75 75 75 75 76 76 76 76 76 76 76 76 77 77 77 76 76 76 76 76 76 76 76 76 76 75 74 72 70 68 66 65 64 63 62 62 63 62 62 62 62 62 63 63 64 64 65 64 64 63 63 64 63 63 62 61 61 60 60 60 60 60 61 62 60 57 53 49 48 50 51 50 49 50 49 43 37 36 39 40
72 72 72 72 72 72 72 72 72 72 72 72 72 72 72 72 72 72 72 71 71 71 71 71 71 71 72 72 72 72 72 71 68 66 64 63 62 61 61 60 60 59 59 59 58 58 58 59 59 60 60 60 60 59 59 60 60 60 59 58 57 57 57 57 56 56 56 57 56 54 51 47 46 46 49 50 50 50 49 43 36 33 36 39 38
69 69 68 68 68 68 68 68 68 68 68 68 67 67 67 67 67 67 67 66 66 66 66 66 67 67 67 67 68 68 68 66 64 63 62 61 59 58 57 57 56 55 55 55 55 55 55 55 55 56 56 55 54 54 55 56 56 56 56 55 55 55 55 55 54 53 53 53 51 48 46 45 45 47 50 50 50 49 45 37 31 33 37 38 37
64 64 64 64 64 64 64 64 64 64 63 63 63 63 63 63 63 62 62 62 62 62 62 63 63 63 63 64 64 64 63 62 61 60 59 58 56 55 53 53 52 52 52 52 52 52 52 52 52 52 51 50 51 52 53 53 53 53 53 52 51 52 52 51 51 51 50 49 47 45 44 45 46 49 50 49 48 45 39 31 30 36 39 37 35
60 60 60 60 60 60 60 60 60 60 60 60 60 60 60 59 59 59 59 59 59 59 59 59 60 60 60 60 60 60 59 58 57 56 55 54 53 52 51 49 49 48 48 48 48 48 48 48 48 47 46 47 49 50 50 50 50 50 49 48 47 47 47 47 47 48 47 46 45 45 45 47 48 49 48 46 44 40 32 28 32 38 39 36 34
56 57 57 57 58 58 58 58 58 58 57 57 57 57 56 56 56 56 56 55 55 55 56 56 56 57 57 57 57 56 55 54 53 52 51 51 51 50 49 47 46 45 44 44 44 45 45 46 45 44 43 44 46 47 47 47 46 45 45 44 44 44 43 43 44 44 43 43 44 46 47 48 48 47 45 42 39 33 28 29 35 39 38 35 34
53 54 54 54 54 54 54 54 54 54 54 54 53 53 53 52 52 52 53 53 53 53 53 53 54 54 54 54 54 53 52 51 50 49 48 48 47 47 46 45 43 43 42 41 41 41 42 42 42 41 41 41 42 43 44 44 43 42 41 41 41 41 41 40 41 41 41 43 45 47 48 47 45 43 40 37 33 29 27 32 37 39 37 35 33
50 50 50 51 51 51 51 51 51 50 50 50 50 50 49 49 50 50 50 50 50 51 51 51 51 51 51 50 50 49 48 48 48 47 45 44 43 43 42 42 41 40 40 39 39 39 39 39 39 39 38 39 39 40 40 41 40 39 38 37 37 38 38 38 39 40 41 43 45 46 46 43 40 37 35 33 30 28 31 35 38 37 35 34 33
47 47 47 47 48 48 48 47 47 47 47 47 47 47 47 48 48 48 48 49 49 49 49 49 49 48 47 47 46 45 45 45 45 45 44 42 40 39 39 39 38 38 38 37 37 36 36 36 36 36 36 36 37 37 37 37 38 37 36 35 35 35 35 36 37 38 40 41 42 42 41 38 35 33 32 31 30 31 34 37 36 35 34 33 32
44 44 44 44 45 45 45 45 45 45 45 45 45 45 46 46 46 47 47 47 47 47 47 46 46 45 44 44 44 43 43 43 43 43 42 41 39 37 36 36 36 35 35 35 35 34 34 34 33 33 33 33 34 34 34 34 35 35 34 34 33 33 33 34 35 36 37 38 39 38 36 34 33 32 32 32 33 34 35 35 34 33 33 32 31
42 42 42 42 42 42 43 43 43 43 43 43 43 44 44 44 45 45 46 45 45 44 44 43 43 43 42 42 43 42 42 42 41 40 40 39 38 36 35 33 33 32 33 33 33 33 32 32 32 31 31 30 31 31 32 32 32 32 32 32 31 31 31 32 32 33 34 35 36 36 35 33 32 33 33 33 34 34 34 33 33 32 32 32 31
40 40 40 40 40 40 41 41 41 41 42 42 42 43 43 43 44 44 44 43 43 42 42 42 42 41 41 41 41 41 41 40 39 38 37 37 37 36 35 33 32 31 31 31 30 30 30 31 31 30 29 29 29 29 29 30 30 30 30 30 30 30 30 30 30 31 32 33 34 34 33 32 32 32 32 32 33 33 33 33 32 32 31 31 31
Wind_Direction
243 248 254 261 265 265 265 264 263 264 266 269 271 273 275 275 274 274 275 275 276 275 275 275 275 276 276 277 279 280 282 283 284 285 287 288 288 287 286 285 283 280 279 278 278 278 278 278 278 278 279 280 280 281 282 282 282 281 280 280 281 280 279 278 277 277 278 277 278 279 281 283 284 286 289 291 292 294 294 293 289 285 282 280 279
242 249 257 266 269 270 270 272 274 274 272 271 272 275 276 275 274 272 271 272 273 273 273 274 275 275 276 278 281 284 286 287 287 287 287 287 287 287 286 285 283 283 282 282 282 282 281 280 280 280 280 280 281 282 283 283 283 282 281 282 283 283 283 282 282 281 280 279 279 280 281 284 286 290 293 294 294 294 292 289 286 285 283 280 280
245 252 259 264 270 274 277 279 280 277 272 270 271 275 276 276 276 275 273 271 271 272 274 274 275 276 278 281 284 287 290 290 290 288 287 287 287 288 288 287 286 286 286 287 287 286 284 283 282 281 280 280 280 281 282 282 283 284 285 286 287 288 289 290 289 288 287 285 285 284 285 287 289 291 293 292 291 290 289 287 288 288 283 281 282
248 252 252 252 259 267 271 271 270 267 265 267 268 269 270 272 275 277 278 278 278 280 280 280 281 282 284 287 290 291 291 290 288 287 287 288 289 289 290 290 290 291 291 291 290 287 285 283 282 281 280 280 280 281 281 281 283 285 286 288 288 290 292 293 293 293 291 291 291 290 290 288 287 289 291 291 290 289 289 289 291 291 285 282 282
244 248 250 251 254 259 262 262 262 260 259 261 262 263 265 269 273 277 278 281 282 284 285 285 285 286 289 291 291 291 289 287 286 286 287 288 289 290 290 291 292 293 293 291 288 285 283 282 281 280 279 279 279 280 280 281 283 284 285 285 287 289 291 293 294 295 294 293 293 291 289 287 287 289 290 290 290 291 291 291 292 293 290 286 283
240 243 247 250 252 256 260 263 263 262 261 262 265 268 270 271 274 276 276 278 280 282 284 284 284 287 289 289 289 288 287 286 286 287 287 287 286 286 287 289 291 292 291 289 286 283 282 280 280 279 279 279 278 279 280 281 282 283 284 285 287 290 292 294 296 298 298 297 296 294 291 290 290 292 293 293 293 293 294 293 293 293 293 290 287
239 241 243 247 251 255 260 263 264 265 266 268 271 275 276 275 275 276 277 280 281 283 284 284 285 286 287 287 287 287 287 287 286 286 285 284 284 285 287 290 291 291 289 287 284 282 280 280 279 278 278 278 278 279 280 282 284 285 287 289 291 293 295 297 299 300 301 301 300 299 296 295 294 294 295 296 297 297 296 295 294 294 294 292 290
240 243 245 247 251 255 258 260 261 264 269 272 273 273 272 274 277 279 280 282 283 284 286 286 286 287 287 287 287 287 287 285 284 284 283 282 284 287 289 290 290 289 286 284 282 281 279 278 277 276 276 278 281 282 283 285 287 289 290 291 292 294 295 297 299 300 300 301 300 299 298 298 298 298 298 298 298 298 297 296 295 295 295 294 291
239 243 246 250 253 254 254 256 260 264 268 269 267 265 266 272 277 279 279 281 282 284 284 285 286 287 287 288 288 287 286 285 284 284 284 285 287 289 289 289 288 286 284 282 280 279 278 277 277 278 280 283 284 285 285 286 288 289 290 291 292 293 294 296 297 298 298 298 298 297 296 296 297 298 299 299 299 298 297 296 296 296 295 295 293
236 239 243 249 254 255 255 258 261 264 266 266 266 268 270 273 275 277 278 279 280 281 282 283 284 285 286 288 288 287 287 287 287 288 288 288 289 289 288 287 286 284 283 281 279 279 279 280 280 281 283 284 285 285 284 284 285 287 289 290 292 293 293 294 295 296 297 297 297 296 295 294 295 296 296 297 297 296 296 295 295 295 295 295 294
238 239 240 245 251 254 254 256 258 260 262 265 267 268 270 273 275 277 277 278 279 281 281 282 283 283 285 287 288 288 288 288 289 290 290 290 289 288 288 288 287 285 284 284 283 284 284 283 283 283 283 283 284 283 283 283 284 286 287 289 290 290 291 293 294 295 295 296 296 295 294 294 294 295 295 295 295 295 294 294 294 294 295 295 294
242 242 241 242 245 248 250 251 253 254 256 259 262 264 267 271 275 276 276 277 278 279 279 280 281 282 284 285 286 287 287 288 289 289 287 286 286 286 286 286 285 284 284 285 285 285 284 284 283 283 283 284 284 283 283 283 283 284 286 288 289 290 291 292 292 293 293 293 293 292 292 292 292 293 293 293 294 293 293 293 293 293 293 293 292
244 244 244 244 245 246 247 250 252 253 254 256 260 263 266 269 272 274 275 276 276 277 278 279 280 282 283 283 284 284 285 286 286 285 284 283 283 283 282 282 281 281 282 283 283 283 283 283 283 283 283 284 284 284 284 284 285 287 289 291 292 293 293 293 293 292 292 292 291 290 290 290 290 290 291 291 291 291 290 291 291 291 291 290 290
244 244 245 246 246 246 246 248 252 254 256 259 262 265 267 269 271 273 274 275 276 277 278 279 281 281 280 279 280 282 283 283 282 282 282 282 281 281 280 279 279 279 280 281 281 282 282 282 282 282 282 282 283 284 285 286 288 291 292 293 294 294 294 294 293 292 292 291 290 289 289 289 289 289 289 289 289 289 289 289 289 289 288 288 288
246 246 246 246 246 245 245 245 248 252 255 258 260 264 267 268 269 271 272 274 276 278 279 281 283 282 281 280 281 282 283 281 280 280 280 279 279 279 279 279 280 280 280 280 281 281 281 281 280 279 279 280 281 282 284 286 288 290 290 291 291 291 291 291 290 290 290 290 289 288 288 288 288 288 288 288 288 288 288 288 288 288 288 288 288
248 248 248 247 246 246 246 246 247 249 252 253 256 260 263 266 267 269 270 272 275 277 278 279 279 278 278 279 281 282 282 280 279 280 281 280 280 280 280 281 281 281 281 282 282 281 280 278 278 277 277 278 280 281 282 284 286 287 288 288 289 289 289 288 288 287 287 287 287 287 287 287 287 287 287 287 287 287 287 287 287 287 287 288 288
248 249 249 248 248 248 248 247 247 248 250 251 253 255 258 262 265 267 270 272 274 275 275 275 274 273 273 274 275 276 276 277 277 279 279 280 281 282 282 282 282 283 283 282 280 279 277 276 276 276 277 278 280 282 283 284 286 287 288 289 289 289 289 288 287 287 286 286 286 285 285 286 286 286 287 287 286 286 286 286 286 286 286 286 287
248 249 249 249 249 249 248 248 248 248 249 250 251 253 256 259 263 266 269 271 273 274 274 273 273 271 270 271 271 270 269 271 274 275 276 277 278 280 281 282 282 282 281 279 276 274 274 275 276 277 279 280 282 283 284 285 286 287 287 287 287 287 286 286 286 287 286 286 286 285 284 284 285 285 286 286 285 285 285 285 285 285 285 286 286
248 248 249 249 250 250 250 250 250 251 251 251 252 255 257 260 263 266 268 271 272 273 273 273 272 271 270 269 269 269 268 269 271 272 274 275 276 277 278 278 279 279 278 278 276 275 275 276 278 279 281 282 283 284 285 286 286 286 286 285 284 283 283 283 283 284 284 285 285 285 285 285 285 285 284 284 284 284 284 284 284 285 285 285 285
248 248 249 250 250 251 252 252 253 254 254 255 255 256 258 260 262 264 267 269 270 271 272 273 273 272 272 271 270 270 269 270 271 272 274 274 275 275 275 275 275 276 276 277 277 277 277 278 279 280 281 282 283 284 284 284 284 284 284 282 281 281 281 281 281 281 282 283 284 285 285 285 285 285 284 284 283 283 283 283 284 284 284 284 284
247 248 249 250 251 251 252 254 255 256 257 258 258 259 260 261 263 265 267 269 270 271 272 273 274 273 273 273 273 273 272 272 272 273 274 275 275 275 275 275 275 275 276 276 277 277 278 278 279 279 280 281 282 282 283 283 283 282 282 281 280 280 279 279 279 280 281 282 282 283 283 283 283 284 284 284 284 284 284 284 284 284 284 284 284
248 248 249 250 251 252 253 254 256 258 259 260 261 261 262 264 265 267 269 270 271 271 272 274 275 274 274 275 275 276 276 276 276 276 276 277 276 276 275 275 275 275 276 276 277 277 278 278 279 279 279 280 280 281 281 281 281 281 280 279 279 278 278 278 279 279 280 280 280 280 280 280 281 281 282 282 283 284 284 285 285 284 284 284 283
249 250 250 251 251 252 254 255 257 258 259 261 261 262 263 265 266 268 269 270 271 272 273 274 274 275 276 276 277 277 277 278 278 278 278 278 277 277 276 276 275 275 275 275 275 275 276 277 277 278 278 279 279 279 279 279 280 280 279 278 277 277 278 279 279 279 278 278 278 278 278 278 278 278 279 279 280 281 282 283 283 283 283 283 283
252 252 252 252 253 254 255 256 258 259 260 261 262 263 264 266 267 269 270 271 272 273 274 275 275 276 276 277 277 277 278 278 278 279 279 278 278 278 277 276 276 275 274 274 274 274 275 275 276 277 277 277 278 278 279 280 280 279 278 277 278 278 279 278 278 277 277 277 276 276 276 276 276 276 276 277 278 279 280 281 281 281 282 282 283
255 255 255 255 255 256 256 257 258 259 261 262 263 265 266 267 269 270 271 272 273 274 275 275 276 276 276 277 277 277 277 277 277 277 277 277 277 277 277 276 276 276 276 275 275 275 275 275 276 276 276 276 277 277 278 279 279 279 279 279 280 280 279 279 278 277 276 276 275 275 274 275 275 275 275 276 276 278 279 280 281 281 282 282 282
259 259 258 258 258 258 258 259 259 260 261 262 263 265 266 267 269 270 271 272 273 273 274 275 275 276 276 276 277 277 276 276 276 275 275 275 274 274 274 274 274 274 274 274 274 275 275 275 275 275 275 275 276 276 276 277 279 281 283 284 284 284 285 284 283 282 281 280 279 277 276 275 276 276 276 276 276 277 278 280 282 283 283 283 282
260 261 261 261 261 261 261 261 261 262 263 263 264 265 266 267 268 269 270 271 271 272 273 273 274 274 275 275 276 276 276 276 276 276 276 276 275 275 275 275 275 274 274 274 275 275 276 276 276 277 277 278 278 278 278 279 281 282 284 285 286 287 288 288 288 288 288 286 284 282 280 280 279 278 278 277 277 278 279 281 283 283 283 283 283
260 260 261 261 261 262 262 262 263 264 264 265 265 266 267 267 268 269 269 270 271 271 272 272 273 273 273 273 273 273 274 274 274 275 275 276 276 277 277 277 277 277 277 278 278 279 279 279 279 279 279 279 279 279 280 280 280 281 282 283 284 285 286 287 287 287 287 286 285 285 285 284 283 281 280 280 280 281 282 282 283 283 283 283 283
261 261 262 262 262 263 263 264 265 265 266 266 267 267 268 268 269 269 270 271 271 271 272 272 272 272 273 273 273 273 273 273 273 273 274 275 275 276 277 277 278 278 278 279 279 279 279 279 279 279 279 279 279 279 279 279 279 279 280 280 281 282 284 284 284 284 284 285 286 287 287 286 285 283 283 283 284 284 284 284 284 284 284 283 283
264 264 264 264 265 265 265 266 266 267 267 268 268 268 268 269 269 269 269 270 270 271 271 271 271 272 272 272 273 273 274 274 274 275 275 275 275 276 276 276 276 277 277 277 277 277 278 278 278 278 278 277 277 278 278 278 278 278 279 279 280 281 281 282 281 282 283 284 285 286 287 287 287 287 287 288 287 287 287 287 286 285 284 284 284
264 264 265 265 265 265 266 266 266 267 267 267 268 268 268 268 268 269 269 269 270 270 270 271 271 271 272 272 273 273 274 274 275 275 275 275 275 275 275 275 275 275 275 275 276 276 277 277 278 278 277 277 277 277 277 277 277 277 278 279 279 279 279 279 280 281 282 284 286 287 287 287 288 289 290 289 289 290 290 289 288 286 285 285 286
264 265 265 265 266 266 266 266 267 267 267 268 268 269 269 269 269 269 270 270 270 271 271 271 272 272 272 273 273 273 274 274 274 274 275 275 275 275 275 275 275 275 275 276 276 276 276 277 277 277 277 277 277 277 276 276 276 276 276 277 277 277 277 277 278 280 282 284 285 286 286 286 288 288 288 288 290 291 291 289 287 286 286 287 287
265 266 266 266 267 267 268 268 268 268 269 269 269 270 270 270 270 271 271 271 271 272 272 272 272 273 273 273 273 274 274 274 274 274 274 274 274 274 275 275 275 276 276 276 276 276 276 276 276 276 276 276 276 276 276 275 274 274 273 273 273 274 275 276 278 280 282 283 283 283 284 285 286 286 286 288 291 292 290 287 286 286 287 286 285
266 267 267 267 268 268 269 269 269 270 270 270 270 271 271 271 271 272 272 272 272 273 273 274 274 274 274 274 275 275 275 275 275 275 275 275 275 275 275 276 276 276 276 276 276 276 275 275 275 275 275 275 274 274 274 274 273 272 272 272 272 273 275 277 278 279 279 280 281 282 283 284 284 284 286 289 291 290 287 285 285 286 286 284 282
267 267 268 268 269 269 270 270 271 271 271 272 272 272 272 273 273 274 274 274 274 274 275 275 276 276 277 277 277 276 276 276 276 276 277 277 277 277 277 277 277 277 277 277 276 275 275 274 273 274 274 274 274 273 272 272 272 272 272 273 273 274 275 276 277 277 278 279 280 281 281 282 283 285 287 290 290 287 285 284 285 285 283 281 279
266 267 267 268 269 269 270 270 271 271 271 272 272 273 273 273 274 274 275 275 275 275 275 275 276 276 277 277 277 277 277 278 278 278 278 278 278 279 279 279 279 278 277 276 276 275 275 274 273 273 273 273 273 273 272 272 272 273 273 273 273 274 274 274 275 276 276 277 278 279 280 281 283 286 288 288 287 284 284 284 284 282 280 278 278
266 266 267 267 268 268 269 269 270 271 271 272 272 273 273 274 274 274 275 275 276 276 276 276 276 275 275 276 276 277 278 278 278 278 279 279 280 280 280 280 280 279 278 277 276 275 274 274 273 273 273 273 273 273 274 274 273 273 272 272 272 273 273 273 273 274 274 275 276 277 280 283 285 287 287 286 283 282 282 282 280 278 278 278 278
268 268 268 269 269 269 270 270 270 271 271 272 272 272 273 273 273 274 274 275 275 276 276 276 276 276 276 276 277 277 277 278 278 279 279 280 281 281 280 280 279 279 278 277 276 275 274 274 274 273 273 273 273 273 273 273 272 272 272 271 272 272 272 272 273 273 273 274 276 278 281 283 286 286 284 281 279 279 279 277 275 276 277 277 276
268 269 269 269 269 270 270 270 270 271 271 271 271 271 272 272 273 273 274 274 275 275 276 277 277 278 278 278 278 278 278 278 279 280 281 282 282 282 281 281 280 279 279 278 277 276 275 275 275 274 273 273 273 273 273 273 273 273 272 272 272 272 272 273 273 273 273 275 277 278 280 281 282 281 278 276 275 274 273 272 273 276 276 274 274
268 268 269 269 270 270 270 270 271 271 271 271 272 272 273 273 273 274 274 274 275 276 276 277 277 278 278 279 279 279 279 280 281 282 283 283 283 283 283 282 281 280 279 278 278 277 276 275 274 274 274 274 274 274 274 274 274 274 273 273 273 273 273 273 272 272 272 273 273 275 276 276 276 274 271 270 269 269 269 271 275 276 273 270 271
269 269 270 270 271 271 271 272 272 272 272 273 273 273 273 274 274 274 274 275 275 276 276 277 277 277 278 278 279 279 280 281 282 283 284 284 284 284 284 283 282 280 279 278 277 276 275 274 274 273 273 273 273 274 273 273 273 273 273 273 272 271 270 269 269 268 268 268 269 271 272 272 270 268 266 265 265 266 268 272 275 272 268 267 270
270 270 271 271 272 272 272 272 273 273 273 273 274 274 274 274 275 275 275 276 276 277 277 277 277 277 277 278 279 280 281 282 284 285 285 285 285 284 283 283 282 281 280 279 277 276 275 274 273 273 273 273 273 273 272 270 270 269 269 268 268 267 267 266 266 266 266 266 267 268 268 266 264 262 261 262 263 265 269 272 270 265 264 266 269
270 271 271 272 272 272 273 273 273 273 274 274 274 275 275 275 276 276 276 276 277 277 276 277 277 277 277 278 279 280 281 283 284 285 285 285 284 284 283 282 282 281 280 279 277 276 275 274 274 273 274 273 272 270 269 268 268 267 267 266 266 266 266 266 265 264 264 264 264 263 261 259 258 258 259 261 264 266 269 268 263 260 262 265 267
271 271 271 272 272 273 273 273 274 274 274 274 275 275 275 276 276 276 276 276 276 276 276 276 277 277 278 279 280 281 282 283 284 285 285 285 285 284 283 282 281 280 279 278 277 276 276 275 274 274 274 272 271 270 269 269 268 268 268 268 266 265 265 265 264 264 263 262 260 258 256 255 256 257 260 262 265 267 267 261 257 258 261 264 266
270 271 271 271 272 272 273 273 273 274 274 274 274 274 275 275 275 275 275 275 275 275 276 276 277 278 279 280 281 282 283 283 284 284 284 284 284 284 284 283 281 280 279 278 277 277 277 276 276 275 273 271 271 270 270 270 269 269 269 269 267 266 264 263 262 261 260 259 256 254 254 255 256 258 260 263 265 266 262 254 253 257 261 263 265
269 270 270 271 271 272 272 272 272 273 273 273 273 274 274 274 274 274 274 275 275 276 276 277 278 278 279 280 282 283 283 284 283 283 283 283 283 283 283 282 282 280 279 278 277 277 277 277 276 276 274 272 270 270 270 270 269 269 268 267 266 265 263 261 259 258 256 254 253 253 254 255 257 259 261 262 263 261 255 251 252 256 260 262 263
268 269 270 270 271 271 271 271 272 272 272 273 273 273 273 273 274 274 275 275 276 276 277 277 278 278 279 280 281 282 283 283 283 282 282 282 282 282 281 281 280 280 279 278 277 277 277 276 276 276 274 272 270 269 269 269 269 268 266 264 263 262 261 259 258 256 253 252 252 254 256 258 259 260 260 260 258 255 251 250 252 256 258 259 259
268 269 269 270 270 270 271 271 271 271 272 272 272 273 273 274 274 275 275 276 276 276 277 277 278 278 279 280 281 281 281 282 282 282 282 282 281 280 280 280 280 279 279 278 277 276 276 276 276 276 275 273 272 270 269 268 268 268 266 264 262 260 258 256 255 254 253 253 254 256 258 259 258 257 255 253 251 249 248 250 252 254 256 256 256
269 269 269 270 270 270 270 271 271 271 271 272 272 272 273 273 274 275 275 275 276 276 277 278 279 280 280 281 281 280 280 280 280 282 283 283 282 280 278 278 278 278 278 277 277 276 275 275 275 275 274 274 273 271 269 268 267 266 265 264 262 260 257 255 253 253 253 254 255 256 256 255 253 251 249 247 245 246 247 249 251 252 253 253 253
269 270 270 270 270 270 271 271 271 271 271 271 271 272 272 272 273 274 274 275 276 277 278 278 279 279 280 280 281 281 282 282 283 283 284 285 284 282 280 278 278 277 277 276 276 277 277 276 275 275 274 273 272 271 270 268 266 265 264 263 261 259 257 254 253 251 251 252 253 254 253 251 248 247 246 245 245 246 247 248 249 249 250 250 251
271 271 271 271 271 271 271 271 271 271 271 271 271 271 272 272 273 274 275 276 277 277 278 278 278 278 279 280 282 283 284 285 286 286 286 286 286 284 282 280 279 278 276 275 274 275 276 277 277 276 275 275 273 272 270 268 266 265 264 263 261 259 257 254 253 251 250 250 251 252 252 251 248 247 246 245 244 245 245 246 246 246 247 248 248
Height
10595 10592 10592 10594 10595 10595 10595 10596 10598 10598 10598 10597 10597 10597 10597 10599 10601 10602 10602 10601 10600 10602 10605 10607 10608 10609 10608 10608 10609 10609 10609 10610 10610 10610 10610 10610 10611 10611 10612 10612 10612 10613 10613 10613 10612 10611 10610 10609 10607 10606 10604 10603 10602 10601 10600 10601 10602 10603 10602 10601 10601 10601 10600 10599 10599 10598 10597 10596 10595 10595 10594 10594 10593 10592 10591 10590 10589 10589 10588 10586 10585 10584 10583 10582 10581
10590 10590 10591 10591 10592 10592 10592 10594 10595 10596 10595 10593 10593 10592 10592 10593 10594 10595 10597 10595 10593 10595 10599 10601 10602 10603 10604 10604 10605 10605 10606 10605 10605 10605 10605 10605 10605 10606 10606 10606 10606 10607 10607 10607 10606 10605 10604 10602 10601 10600 10599 10598 10597 10596 10595 10594 10594 10594 10595 10596 10596 10596 10595 10594 10594 10594 10593 10592 10591 10589 10588 10588 10587 10585 10584 10584 10583 10582 10581 10579 10578 10577 10575 10574 10573
10589 10589 10589 10589 10588 10587 10588 10589 10590 10590 10589 10587 10587 10587 10586 10587 10587 10588 10589 10589 10588 10590 10594 10595 10596 10597 10598 10600 10601 10602 10602 10601 10601 10600 10600 10600 10600 10600 10601 10601 10601 10601 10601 10601 10600 10599 10597 10596 10595 10594 10593 10592 10591 10590 10589 10588 10587 10586 10586 10587 10588 10588 10588 10588 10587 10587 10586 10585 10584 10583 10582 10582 10581 10579 10577 10577 10577 10577 10575 10573 10571 10570 10568 10567 10567
10586 10586 10585 10584 10583 10583 10584 10583 10584 10584 10583 10582 10580 10580 10580 10581 10582 10583 10583 10584 10584 10585 10588 10590 10591 10592 10593 10595 10596 10597 10597 10597 10596 10595 10595 10595 10595 10595 10595 10595 10595 10595 10595 10595 10594 10592 10591 10590 10589 10588 10587 10586 10585 10585 10584 10583 10582 10580 10579 10579 10579 10579 10580 10581 10580 10579 10578 10577 10577 10576 10575 10575 10575 10574 10571 10570 10570 10569 10568 10567 10565 10563 10561 10560 10560
10582 10581 10581 10580 10579 10579 10578 10578 10577 10578 10577 10576 10574 10574 10575 10577 10578 10579 10578 10579 10579 10581 10583 10584 10585 10587 10588 10589 10590 10591 10591 10590 10590 10590 10590 10590 10590 10590 10590 10590 10590 10589 10589 10588 10587 10586 10585 10584 10584 10583 10582 10581 10580 10579 10579 10578 10577 10575 10574 10573 10573 10572 10572 10573 10573 10573 10572 10571 10571 10570 10569 10568 10568 10567 10565 10564 10563 10561 10560 10559 10558 10557 10555 10554 10553
10576 10576 10575 10574 10574 10574 10573 10572 10571 10571 10572 10570 10568 10568 10569 10571 10574 10574 10573 10574 10575 10576 10577 10578 10579 10581 10583 10583 10584 10584 10584 10584 10583 10583 10584 10584 10584 10584 10584 10584 10583 10583 10582 10581 10581 10580 10579 10578 10578 10577 10577 10575 10574 10574 10573 10573 10572 10571 10569 10568 10567 10566 10565 10565 10565 10565 10564 10563 10563 10563 10562 10561 10560 10558 10557 10555 10555 10554 10553 10552 10551 10550 10549 10548 10547
10570 10569 10569 10568 10569 10569 10568 10567 10565 10565 10566 10564 10564 10563 10562 10563 10566 10567 10567 10569 10569 10570 10571 10571 10572 10575 10576 10577 10577 10577 10577 10577 10577 10577 10577 10577 10578 10578 10578 10578 10577 10575 10574 10574 10574 10574 10573 10573 10572 10571 10571 10570 10569 10568 10568 10567 10567 10566 10564 10562 10560 10558 10556 10556 10556 10556 10554 10553 10553 10553 10553 10551 10551 10550 10549 10547 10546 10546 10545 10544 10543 10542 10541 10541 10540
10563 10563 10563 10563 10564 10564 10564 10562 10561 10561 10560 10559 10560 10559 10556 10556 10558 10560 10562 10562 10562 10562 10563 10563 10564 10566 10568 10569 10569 10569 10570 10570 10570 10571 10571 10571 10571 10571 10571 10571 10571 10570 10569 10568 10568 10567 10567 10567 10567 10566 10566 10565 10563 10562 10560 10560 10559 10558 10558 10556 10554 10552 10550 10549 10548 10547 10546 10545 10544 10543 10543 10541 10541 10541 10540 10539 10538 10537 10537 10536 10535 10534 10533 10533 10533
10558 10558 10559 10560 10560 10560 10560 10559 10559 10559 10557 10555 10556 10554 10552 10552 10553 10555 10556 10556 10556 10556 10556 10556 10557 10558 10559 10560 10561 10561 10562 10562 10563 10563 10564 10564 10564 10564 10564 10564 10564 10563 10563 10562 10562 10562 10562 10562 10561 10560 10559 10558 10556 10554 10553 10552 10551 10550 10549 10549 10548 10546 10545 10543 10542 10541 10540 10539 10537 10536 10535 10533 10532 10532 10531 10530 10529 10528 10528 10527 10526 10525 10524 10524 10524
10554 10554 10557 10559 10558 10558 10559 10558 10557 10556 10552 10551 10551 10549 10548 10549 10550 10551 10551 10551 10551 10551 10550 10550 10551 10552 10552 10553 10553 10553 10553 10554 10554 10554 10555 10556 10556 10556 10556 10556 10556 10556 10556 10556 10556 10555 10555 10554 10553 10552 10551 10549 10548 10547 10546 10545 10544 10543 10542 10542 10541 10539 10538 10537 10536 10535 10534 10533 10532 10530 10529 10527 10525 10524 10523 10522 10521 10520 10519 10518 10517 10516 10515 10515 10514
10549 10550 10554 10556 10554 10555 10556 10553 10552 10552 10549 10548 10548 10545 10544 10545 10546 10546 10546 10546 10546 10546 10545 10545 10545 10545 10546 10546 10545 10545 10546 10546 10546 10546 10546 10546 10547 10547 10547 10547 10546 10546 10545 10546 10546 10545 10544 10544 10544 10543 10543 10542 10541 10540 10540 10539 10538 10537 10536 10535 10535 10534 10532 10530 10529 10527 10526 10525 10524 10523 10522 10521 10519 10517 10516 10514 10513 10511 10510 10509 10507 10506 10505 10504 10504
10543 10544 10547 10549 10549 10550 10550 10547 10547 10548 10547 10544 10542 10542 10542 10542 10542 10541 10541 10541 10541 10540 10540 10541 10541 10541 10540 10540 10540 10539 10539 10539 10539 10539 10539 10539 10539 10539 10539 10540 10538 10536 10535 10536 10536 10536 10535 10535 10535 10535 10535 10534 10533 10532 10532 10531 10530 10530 10529 10529 10528 10527 10526 10525 10522 10520 10519 10517 10516 10515 10514 10513 10511 10510 10508 10506 10504 10502 10500 10499 10498 10497 10496 10495 10494
10536 10538 10540 10541 10543 10545 10544 10543 10543 10542 10539 10537 10537 10537 10537 10537 10536 10535 10534 10535 10535 10535 10535 10536 10536 10537 10536 10535 10534 10533 10533 10533 10533 10532 10532 10532 10533 10533 10532 10533 10532 10529 10528 10529 10529 10528 10528 10528 10527 10527 10526 10524 10523 10522 10522 10521 10520 10519 10519 10518 10518 10517 10516 10515 10514 10513 10511 10510 10508 10506 10505 10504 10503 10501 10500 10498 10496 10494 10492 10490 10489 10488 10487 10486 10485
10530 10531 10533 10535 10537 10538 10538 10539 10539 10535 10532 10532 10531 10531 10529 10529 10530 10528 10527 10528 10529 10529 10529 10530 10531 10531 10529 10529 10528 10526 10526 10526 10525 10525 10524 10524 10525 10525 10524 10523 10524 10523 10522 10521 10521 10520 10519 10519 10519 10518 10517 10515 10513 10512 10511 10510 10509 10508 10506 10506 10505 10505 10504 10504 10503 10502 10501 10501 10499 10497 10495 10494 10493 10492 10490 10488 10486 10485 10483 10482 10480 10478 10477 10476 10476
10523 10524 10526 10528 10529 10530 10531 10533 10533 10531 10529 10529 10527 10523 10521 10521 10522 10521 10519 10520 10522 10522 10523 10525 10525 10521 10518 10520 10521 10521 10519 10516 10514 10516 10517 10517 10517 10517 10516 10515 10515 10515 10515 10513 10513 10512 10511 10511 10510 10509 10508 10506 10504 10503 10502 10501 10500 10499 10498 10497 10496 10496 10495 10494 10493 10492 10492 10490 10490 10488 10486 10484 10483 10481 10480 10478 10477 10475 10474 10472 10470 10468 10467 10466 10465
10516 10517 10519 10520 10521 10522 10523 10525 10526 10525 10525 10524 10522 10519 10516 10516 10516 10514 10514 10514 10515 10516 10517 10520 10521 10515 10510 10512 10515 10517 10513 10504 10503 10507 10506 10506 10508 10507 10506 10506 10505 10505 10505 10504 10503 10502 10501 10501 10500 10499 10498 10497 10496 10495 10494 10493 10492 10490 10489 10488 10487 10486 10485 10483 10482 10482 10483 10481 10480 10479 10477 10475 10473 10472 10470 10469 10467 10466 10464 10462 10460 10458 10457 10455 10454
10509 10510 10512 10513 10513 10515 10515 10517 10518 10518 10518 10518 10517 10515 10513 10512 10510 10509 10509 10508 10509 10510 10510 10512 10513 10511 10508 10507 10510 10514 10508 10496 10494 10499 10498 10498 10499 10497 10495 10496 10495 10494 10494 10493 10492 10491 10490 10490 10489 10488 10488 10487 10487 10486 10485 10484 10482 10480 10479 10477 10475 10474 10473 10470 10468 10470 10471 10471 10470 10469 10467 10465 10463 10462 10461 10459 10458 10456 10454 10452 10450 10448 10447 10445 10444
10503 10503 10504 10505 10506 10506 10507 10508 10509 10510 10511 10511 10511 10509 10508 10507 10505 10504 10504 10503 10503 10503 10503 10504 10505 10504 10504 10502 10503 10507 10505 10494 10489 10492 10492 10492 10492 10490 10488 10487 10485 10484 10484 10484 10483 10482 10481 10480 10479 10478 10478 10477 10478 10477 10476 10474 10473 10470 10469 10468 10466 10464 10462 10459 10456 10456 10457 10457 10458 10457 10456 10455 10453 10452 10450 10449 10447 10445 10444 10442 10440 10438 10437 10435 10433
10496 10496 10497 10497 10498 10498 10499 10500 10501 10502 10503 10503 10503 10502 10501 10500 10499 10498 10497 10497 10496 10495 10495 10496 10497 10496 10496 10496 10495 10496 10496 10492 10488 10486 10485 10485 10485 10483 10482 10480 10478 10476 10475 10475 10475 10474 10472 10471 10469 10468 10467 10467 10467 10467 10465 10464 10462 10460 10459 10458 10456 10454 10452 10449 10447 10446 10445 10445 10445 10444 10444 10443 10442 10441 10440 10438 10436 10434 10433 10432 10430 10428 10426 10424 10422
10488 10489 10489 10489 10490 10490 10490 10491 10492 10493 10494 10494 10494 10493 10492 10492 10491 10491 10491 10490 10489 10489 10488 10488 10488 10488 10488 10487 10487 10486 10486 10485 10483 10480 10478 10476 10475 10474 10473 10471 10470 10468 10466 10466 10465 10463 10462 10460 10459 10458 10457 10457 10457 10456 10455 10453 10451 10449 10447 10445 10443 10442 10441 10438 10436 10435 10435 10435 10434 10433 10432 10431 10430 10429 10428 10426 10425 10424 10423 10421 10420 10418 10416 10414 10411
10480 10481 10481 10481 10482 10482 10481 10482 10482 10483 10484 10484 10484 10483 10482 10482 10482 10482 10482 10482 10481 10481 10481 10480 10480 10479 10478 10477 10476 10476 10475 10475 10473 10472 10469 10467 10466 10464 10463 10461 10460 10459 10458 10456 10454 10452 10450 10449 10448 10448 10447 10447 10446 10445 10444 10442 10440 10437 10434 10430 10429 10429 10428 10426 10425 10425 10426 10426 10425 10424 10422 10420 10418 10417 10416 10414 10413 10412 10411 10410 10409 10407 10405 10403 10400
10471 10472 10472 10472 10472 10473 10473 10472 10473 10473 10473 10474 10474 10473 10473 10472 10472 10472 10472 10472 10472 10472 10471 10471 10470 10468 10467 10466 10464 10463 10462 10461 10460 10459 10458 10457 10455 10453 10452 10451 10450 10450 10448 10446 10443 10441 10439 10437 10437 10437 10437 10437 10436 10435 10434 10432 10429 10426 10421 10416 10414 10414 10414 10414 10415 10416 10416 10415 10414 10413 10411 10410 10408 10406 10405 10403 10402 10401 10400 10399 10398 10396 10393 10390 10387
10461 10462 10463 10463 10463 10464 10464 10464 10464 10464 10464 10464 10464 10463 10463 10462 10462 10462 10461 10461 10461 10461 10461 10460 10459 10457 10455 10453 10452 10450 10449 10447 10446 10445 10444 10443 10442 10441 10440 10439 10439 10439 10438 10436 10433 10431 10429 10427 10426 10426 10426 10427 10426 10425 10424 10422 10419 10414 10407 10401 10399 10400 10402 10403 10404 10404 10404 10404 10403 10402 10401 10399 10397 10396 10394 10392 10391 10390 10389 10388 10387 10384 10381 10378 10374
10451 10452 10453 10454 10455 10455 10455 10455 10455 10455 10454 10454 10453 10453 10452 10451 10451 10450 10450 10449 10448 10448 10448 10447 10447 10446 10444 10441 10440 10439 10437 10435 10433 10431 10430 10429 10428 10427 10426 10426 10426 10427 10426 10425 10423 10421 10420 10418 10417 10415 10415 10416 10416 10416 10415 10414 10407 10398 10390 10387 10387 10388 10390 10390 10389 10390 10391 10392 10391 10391 10389 10387 10386 10384 10383 10381 10380 10380 10379 10377 10375 10372 10369 10365 10362
10442 10443 10444 10445 10446 10446 10446 10446 10446 10445 10445 10444 10443 10442 10441 10440 10439 10438 10437 10437 10436 10435 10435 10434 10433 10432 10431 10430 10428 10426 10425 10424 10422 10420 10419 10417 10416 10415 10414 10413 10413 10414 10414 10413 10411 10409 10408 10407 10406 10404 10404 10405 10406 10406 10407 10404 10393 10380 10375 10375 10375 10375 10374 10373 10373 10374 10378 10379 10379 10377 10375 10374 10374 10372 10371 10370 10369 10368 10367 10365 10363 10360 10357 10353 10350
10433 10433 10434 10434 10434 10435 10435 10435 10435 10435 10434 10434 10433 10432 10431 10430 10429 10428 10427 10426 10425 10424 10424 10423 10421 10420 10418 10417 10414 10412 10410 10409 10408 10407 10406 10405 10404 10402 10401 10401 10401 10402 10402 10401 10399 10397 10396 10395 10394 10392 10392 10395 10395 10393 10394 10395 10386 10371 10362 10360 10359 10358 10357 10355 10353 10355 10360 10364 10363 10362 10361 10361 10361 10360 10359 10358 10357 10356 10355 10353 10351 10348 10345 10341 10337
10421 10422 10422 10422 10422 10422 10422 10422 10422 10422 10422 10422 10422 10422 10421 10420 10419 10418 10417 10416 10414 10414 10413 10412 10410 10409 10407 10405 10403 10400 10396 10394 10393 10393 10392 10390 10390 10388 10387 10387 10388 10388 10389 10388 10387 10385 10383 10381 10380 10378 10379 10381 10381 10378 10379 10382 10379 10368 10356 10348 10346 10345 10343 10339 10337 10337 10340 10342 10343 10344 10346 10347 10348 10347 10345 10345 10345 10345 10344 10343 10340 10337 10332 10328 10324
10409 10410 10410 10410 10410 10410 10410 10410 10410 10410 10410 10410 10410 10410 10410 10409 10408 10407 10406 10404 10403 10402 10400 10399 10398 10397 10395 10394 10392 10389 10386 10383 10381 10381 10379 10378 10377 10375 10374 10373 10372 10372 10373 10374 10373 10371 10368 10365 10364 10364 10365 10366 10365 10364 10365 10366 10365 10360 10352 10344 10339 10336 10333 10329 10328 10325 10322 10322 10324 10327 10330 10332 10333 10332 10332 10333 10334 10334 10334 10332 10328 10324 10320 10316 10311
10397 10398 10398 10399 10399 10399 10399 10399 10399 10398 10398 10398 10398 10398 10398 10397 10396 10395 10394 10392 10390 10389 10387 10386 10385 10383 10381 10379 10378 10376 10373 10370 10369 10369 10369 10367 10365 10364 10362 10361 10359 10358 10358 10359 10360 10357 10353 10348 10347 10348 10350 10350 10349 10350 10351 10351 10348 10346 10343 10338 10334 10329 10325 10321 10317 10312 10309 10310 10312 10313 10314 10315 10317 10318 10319 10321 10322 10322 10321 10319 10316 10312 10307 10303 10299
10384 10385 10386 10386 10387 10387 10387 10387 10387 10386 10386 10386 10385 10385 10385 10384 10383 10382 10381 10379 10378 10376 10374 10373 10371 10370 10368 10365 10363 10362 10359 10356 10353 10354 10355 10354 10353 10351 10349 10348 10347 10346 10345 10347 10347 10344 10339 10333 10330 10331 10333 10335 10335 10335 10336 10336 10334 10331 10328 10326 10323 10320 10316 10310 10304 10299 10299 10300 10301 10301 10301 10301 10302 10304 10306 10308 10308 10308 10308 10306 10303 10300 10295 10292 10290
10372 10373 10373 10373 10374 10374 10374 10375 10374 10374 10373 10372 10371 10371 10370 10369 10369 10368 10367 10366 10364 10363 10361 10359 10357 10356 10354 10352 10349 10348 10347 10344 10340 10338 10338 10338 10337 10336 10334 10333 10333 10332 10333 10334 10333 10331 10326 10320 10314 10312 10313 10316 10320 10321 10321 10321 10320 10318 10316 10312 10309 10306 10302 10297 10292 10290 10289 10289 10289 10290 10290 10290 10290 10292 10293 10294 10295 10297 10297 10294 10290 10287 10284 10283 10282
10360 10360 10360 10360 10360 10360 10360 10361 10361 10360 10359 10358 10357 10356 10355 10354 10353 10353 10353 10351 10350 10348 10347 10345 10343 10342 10340 10338 10336 10333 10331 10330 10328 10325 10323 10322 10321 10320 10319 10318 10317 10317 10318 10318 10317 10316 10312 10304 10298 10296 10298 10299 10301 10303 10304 10305 10305 10304 10302 10299 10295 10291 10287 10284 10283 10282 10280 10280 10280 10281 10280 10281 10282 10282 10281 10283 10286 10288 10286 10282 10279 10277 10275 10274 10274
10346 10346 10346 10346 10346 10346 10346 10346 10346 10345 10345 10344 10343 10341 10339 10338 10337 10337 10337 10336 10335 10333 10331 10330 10329 10327 10325 10323 10321 10318 10315 10314 10312 10310 10307 10306 10306 10305 10304 10303 10302 10301 10302 10301 10300 10299 10296 10289 10283 10282 10284 10285 10285 10286 10287 10288 10289 10288 10286 10284 10281 10278 10275 10275 10276 10275 10272 10271 10271 10270 10271 10272 10272 10271 10271 10274 10278 10278 10275 10272 10270 10268 10268 10267 10266
10333 10333 10333 10333 10333 10333 10332 10332 10331 10331 10330 10329 10328 10327 10325 10323 10321 10321 10321 10321 10319 10318 10316 10314 10312 10311 10309 10307 10305 10303 10300 10296 10294 10292 10291 10290 10290 10290 10290 10289 10288 10287 10286 10285 10284 10283 10280 10275 10270 10267 10267 10269 10271 10273 10272 10272 10272 10272 10270 10269 10269 10267 10266 10266 10267 10266 10263 10261 10260 10259 10260 10261 10261 10261 10263 10267 10270 10269 10266 10263 10262 10261 10260 10259 10258
10320 10320 10319 10319 10319 10319 10319 10318 10317 10316 10315 10314 10313 10312 10310 10308 10306 10304 10304 10304 10303 10303 10302 10300 10296 10294 10292 10290 10288 10285 10283 10281 10280 10279 10277 10276 10274 10274 10273 10273 10273 10273 10272 10270 10268 10266 10263 10261 10258 10256 10254 10254 10255 10257 10258 10259 10258 10257 10257 10257 10257 10257 10256 10255 10255 10254 10253 10252 10250 10249 10249 10250 10251 10253 10255 10258 10260 10259 10256 10255 10254 10254 10253 10252 10250
10307 10307 10306 10306 10306 10306 10305 10304 10303 10302 10301 10299 10298 10297 10295 10294 10293 10291 10289 10287 10286 10287 10287 10287 10285 10282 10278 10275 10271 10269 10267 10267 10266 10264 10263 10262 10261 10260 10259 10258 10258 10258 10257 10255 10254 10252 10249 10247 10245 10244 10243 10241 10240 10240 10243 10245 10246 10246 10246 10245 10245 10246 10245 10245 10244 10244 10244 10242 10240 10239 10239 10240 10243 10246 10248 10249 10250 10249 10248 10247 10246 10246 10245 10245 10244
10294 10294 10293 10293 10292 10292 10291 10290 10289 10288 10287 10286 10284 10283 10282 10280 10279 10277 10275 10273 10271 10271 10271 10271 10271 10269 10266 10263 10260 10258 10256 10254 10251 10249 10248 10248 10248 10248 10247 10245 10244 10242 10242 10242 10241 10239 10236 10234 10233 10232 10231 10230 10228 10228 10230 10232 10233 10234 10234 10233 10233 10233 10234 10234 10235 10235 10233 10232 10231 10231 10231 10233 10236 10239 10240 10239 10240 10240 10240 10239 10238 10238 10238 10238 10237
10281 10280 10280 10279 10279 10278 10278 10277 10276 10275 10274 10272 10271 10270 10268 10267 10266 10264 10262 10260 10259 10257 10256 10255 10254 10253 10251 10250 10248 10247 10245 10242 10239 10237 10236 10236 10236 10236 10235 10234 10232 10230 10229 10229 10228 10226 10224 10222 10222 10221 10220 10218 10218 10218 10219 10219 10220 10221 10221 10222 10222 10223 10223 10224 10225 10225 10224 10223 10222 10223 10224 10226 10230 10232 10231 10230 10230 10231 10231 10231 10230 10231 10232 10231 10230
10268 10268 10267 10267 10266 10266 10265 10264 10263 10262 10261 10260 10258 10257 10256 10255 10254 10252 10250 10249 10247 10245 10244 10242 10241 10239 10237 10235 10234 10233 10231 10229 10227 10226 10225 10225 10224 10224 10223 10222 10220 10219 10217 10216 10215 10214 10213 10211 10210 10210 10208 10207 10207 10208 10209 10209 10209 10210 10211 10211 10212 10213 10214 10215 10215 10215 10216 10216 10215 10215 10217 10219 10222 10223 10222 10222 10222 10223 10223 10223 10223 10225 10225 10225 10224
10256 10256 10255 10255 10255 10254 10253 10252 10251 10250 10249 10248 10247 10246 10245 10244 10242 10240 10239 10237 10236 10235 10233 10232 10230 10227 10225 10223 10221 10219 10218 10216 10216 10216 10216 10214 10213 10212 10211 10210 10209 10207 10206 10205 10205 10204 10203 10201 10200 10199 10198 10198 10198 10199 10200 10199 10199 10200 10201 10202 10203 10204 10205 10206 10206 10206 10207 10207 10207 10208 10209 10211 10213 10214 10213 10213 10214 10214 10215 10215 10217 10219 10219 10218 10219
10245 10245 10244 10244 10243 10243 10242 10241 10240 10239 10238 10237 10236 10235 10234 10233 10231 10229 10228 10227 10226 10225 10223 10222 10220 10217 10215 10213 10210 10208 10206 10206 10206 10207 10206 10205 10204 10202 10201 10200 10198 10197 10196 10195 10195 10194 10192 10191 10190 10190 10189 10189 10190 10191 10191 10191 10190 10191 10192 10193 10194 10195 10195 10195 10196 10197 10197 10197 10198 10200 10202 10203 10205 10205 10205 10205 10205 10206 10207 10210 10212 10213 10212 10212 10213
10235 10234 10234 10233 10232 10232 10231 10231 10230 10228 10227 10226 10226 10225 10224 10222 10221 10219 10218 10217 10216 10215 10214 10212 10210 10208 10206 10204 10202 10200 10198 10197 10197 10198 10197 10196 10194 10193 10192 10190 10189 10188 10187 10186 10185 10183 10182 10182 10181 10181 10181 10182 10183 10183 10182 10181 10181 10181 10182 10184 10184 10185 10185 10185 10187 10188 10188 10189 10190 10193 10194 10195 10196 10196 10196 10197 10198 10199 10201 10205 10206 10206 10206 10207 10208
10225 10225 10224 10223 10223 10222 10221 10220 10220 10219 10218 10217 10216 10215 10214 10213 10212 10211 10210 10208 10207 10206 10204 10203 10201 10199 10198 10196 10195 10193 10191 10190 10190 10189 10188 10187 10186 10185 10184 10182 10181 10179 10178 10177 10176 10174 10173 10173 10173 10173 10174 10175 10175 10173 10172 10172 10172 10172 10174 10175 10177 10177 10177 10178 10178 10179 10180 10181 10183 10185 10186 10187 10187 10187 10188 10190 10191 10193 10197 10200 10200 10199 10200 10201 10203
10217 10216 10215 10214 10214 10213 10212 10211 10211 10210 10209 10208 10207 10206 10205 10204 10203 10202 10201 10200 10199 10198 10196 10195 10193 10191 10190 10189 10187 10186 10185 10184 10183 10182 10181 10179 10177 10176 10175 10174 10173 10171 10170 10169 10167 10166 10165 10165 10166 10167 10168 10167 10165 10163 10163 10164 10164 10165 10166 10168 10169 10170 10170 10171 10171 10171 10173 10174 10176 10177 10177 10178 10179 10180 10182 10184 10186 10189 10192 10194 10194 10193 10194 10196 10198
10209 10208 10207 10206 10206 10205 10204 10203 10202 10202 10201 10200 10199 10199 10198 10197 10196 10195 10194 10193 10192 10190 10189 10188 10186 10185 10183 10182 10180 10179 10179 10178 10177 10176 10174 10172 10170 10168 10167 10166 10165 10164 10163 10161 10160 10159 10158 10157 10158 10160 10161 10159 10157 10156 10156 10156 10157 10158 10159 10159 10160 10161 10162 10163 10163 10164 10165 10167 10168 10168 10169 10170 10172 10174 10176 10179 10181 10184 10187 10188 10187 10187 10189 10191 10192
10201 10200 10199 10198 10198 10197 10197 10196 10195 10194 10193 10193 10192 10191 10190 10189 10188 10187 10186 10185 10184 10184 10183 10181 10180 10179 10177 10175 10174 10173 10172 10171 10170 10169 10167 10166 10164 10162 10160 10159 10158 10156 10155 10154 10153 10152 10151 10150 10150 10152 10153 10152 10151 10150 10149 10149 10150 10152 10152 10152 10153 10153 10155 10156 10156 10157 10158 10159 10160 10161 10162 10164 10167 10169 10172 10174 10176 10179 10181 10181 10181 10182 10184 10185 10186
10193 10193 10192 10191 10191 10190 10190 10189 10188 10187 10187 10186 10185 10184 10183 10182 10181 10180 10179 10178 10178 10177 10176 10175 10174 10173 10171 10170 10169 10167 10166 10164 10162 10161 10160 10159 10157 10155 10153 10152 10151 10150 10149 10147 10146 10145 10145 10144 10144 10144 10145 10145 10145 10144 10144 10143 10143 10144 10145 10146 10147 10147 10148 10149 10149 10150 10151 10152 10153 10154 10156 10159 10162 10165 10167 10169 10171 10173 10174 10175 10175 10177 10179 10180 10181
10186 10186 10185 10184 10184 10183 10183 10182 10182 10181 10180 10179 10178 10177 10177 10175 10174 10174 10173 10172 10171 10170 10169 10168 10167 10166 10165 10164 10163 10161 10160 10158 10156 10154 10153 10152 10151 10149 10147 10146 10145 10144 10143 10141 10140 10139 10138 10138 10137 10138 10138 10138 10138 10138 10138 10138 10138 10138 10139 10140 10140 10141 10142 10143 10143 10144 10145 10146 10147 10149 10152 10154 10157 10160 10162 10163 10165 10167 10168 10169 10171 10172 10174 10175 10176
10179 10179 10178 10177 10177 10176 10176 10175 10175 10174 10174 10173 10172 10171 10170 10169 10168 10167 10167 10166 10165 10164 10163 10162 10161 10160 10159 10157 10156 10154 10153 10151 10150 10148 10146 10145 10144 10143 10142 10140 10139 10138 10137 10135 10134 10133 10132 10132 10131 10131 10132 10132 10131 10131 10132 10132 10132 10132 10132 10133 10134 10136 10136 10137 10138 10139 10139 10140 10142 10144 10146 10149 10152 10154 10155 10157 10159 10160 10162 10164 10166 10167 10169 10170 10171
10172 10172 10171 10171 10170 10169 10169 10168 10168 10168 10167 10167 10166 10165 10164 10164 10163 10161 10160 10160 10159 10158 10157 10156 10154 10153 10152 10150 10149 10147 10146 10144 10143 10142 10141 10139 10137 10136 10136 10135 10134 10133 10131 10130 10129 10128 10127 10126 10125 10125 10125 10126 10126 10126 10126 10126 10127 10127 10127 10128 10129 10130 10131 10132 10132 10133 10134 10135 10136 10138 10140 10143 10146 10148 10150 10151 10153 10155 10157 10159 10161 10162 10164 10165 10166
10165 10165 10164 10164 10163 10163 10162 10162 10162 10161 10161 10160 10160 10159 10158 10158 10157 10156 10155 10154 10153 10152 10150 10149 10148 10147 10146 10144 10143 10141 10139 10138 10137 10136 10134 10133 10131 10129 10129 10129 10128 10128 10126 10125 10124 10123 10122 10121 10120 10120 10120 10120 10120 10121 10121 10121 10122 10122 10122 10123 10123 10124 10125 10126 10127 10128 10129 10130 10131 10133 10135 10138 10140 10142 10144 10146 10148 10150 10152 10154 10156 10157 10159 10160 10161